Temperature
22 21 21 21 20 21 23 24 25 24 24 23 23 23 22 21 20 19 19 19 19 19 19 19 19 19 19 19 19 19 19 19 19 19 19 19 19 19 19 19 19 19 19 19 19 19 19 18 18
22 22 21 21 21 21 23 25 25 25 24 24 23 22 21 20 19 18 18 19 19 19 19 19 19 19 19 19 19 19 19 19 19 19 19 19 19 19 19 19 19 19 19 19 19 19 19 18 18
22 21 21 20 21 22 24 25 25 25 25 24 23 22 21 19 18 18 19 19 19 19 19 19 19 19 19 19 19 19 19 19 19 19 19 19 19 19 19 19 19 19 19 19 19 19 18 18 18
22 22 21 21 23 25 25 25 26 25 25 24 23 21 20 20 19 19 19 19 19 19 19 19 19 19 19 19 19 19 19 19 19 19 19 19 19 19 19 19 19 19 19 19 18 18 18 18 18
22 22 21 22 24 26 26 27 26 25 24 23 22 21 20 20 20 19 19 19 19 19 19 19 19 19 19 19 19 19 19 19 19 19 19 19 19 19 19 19 19 19 19 18 18 18 18 18 18
22 21 22 23 25 26 26 26 25 24 23 22 21 20 19 19 20 19 19 19 19 19 19 19 19 19 19 19 19 19 19 19 19 19 19 19 19 19 19 19 19 19 19 18 18 18 18 18 18
23 22 23 24 25 26 26 26 25 24 24 23 22 20 19 19 19 19 19 19 19 19 19 19 19 19 19 19 19 19 19 19 19 19 19 19 19 19 19 19 19 19 19 18 18 18 18 18 18
24 22 23 24 25 26 27 26 26 25 24 23 22 20 19 19 19 19 19 19 19 19 19 19 19 19 19 19 19 19 19 19 19 19 19 18 19 19 19 19 18 18 18 18 18 18 18 18 18
25 22 23 25 26 26 27 26 26 25 24 23 22 21 20 19 19 19 19 19 19 19 19 19 19 19 19 19 19 19 19 19 19 19 18 18 18 19 19 18 18 18 18 18 18 18 18 18 18
25 22 24 26 27 27 27 27 26 25 23 22 21 21 20 20 19 19 19 19 19 19 19 19 19 19 19 19 19 19 19 19 19 19 18 18 18 19 18 18 18 18 18 18 18 18 18 18 18
25 25 27 28 28 28 27 27 26 24 23 22 21 20 20 19 19 19 19 19 19 19 19 19 19 19 19 19 19 19 19 18 18 18 18 18 18 18 18 18 18 18 18 18 18 18 18 18 18
27 28 29 29 29 28 27 27 26 25 24 23 22 21 20 20 20 20 19 19 19 19 19 19 19 19 19 19 19 19 19 19 19 18 18 18 18 18 18 18 18 18 18 18 18 18 18 18 18
28 28 29 29 29 29 28 27 26 25 24 22 21 21 20 20 20 20 20 20 19 19 19 19 19 19 19 19 19 19 19 19 19 19 19 18 18 18 18 18 18 18 18 18 18 18 18 18 18
28 29 29 29 29 28 27 26 25 24 23 22 21 21 21 20 20 20 20 20 20 20 20 19 19 19 19 19 19 19 19 19 19 19 19 19 19 19 19 18 18 18 18 18 18 18 18 18 18
29 27 28 28 28 28 27 25 24 23 23 22 22 21 21 21 21 21 20 20 20 20 20 20 19 19 19 19 19 19 19 19 19 19 19 19 19 19 19 19 19 18 18 18 18 18 18 18 18
27 26 26 28 28 28 26 24 24 24 23 22 22 22 21 21 21 21 21 21 21 20 20 20 19 19 19 19 19 19 19 19 19 19 19 19 19 19 19 19 19 18 18 18 18 18 18 18 18
25 25 26 27 28 28 26 24 24 24 23 23 22 22 22 21 21 21 21 21 21 21 20 20 20 20 19 19 19 19 19 19 19 19 19 19 19 19 19 19 19 18 18 18 18 18 18 18 18
25 26 26 26 27 27 26 25 25 25 24 23 23 22 22 22 21 21 21 21 21 21 20 20 20 20 19 19 19 19 19 19 19 19 19 19 19 19 19 19 19 19 19 18 18 18 18 18 18
27 26 26 27 28 27 26 25 25 25 24 23 23 22 22 22 22 22 21 21 21 21 20 20 20 20 19 19 19 19 19 19 19 19 19 19 19 19 19 19 19 19 19 19 19 18 18 18 18
27 26 26 27 28 27 25 25 25 24 24 24 23 22 22 22 22 21 21 21 21 21 21 20 20 20 20 19 19 19 19 19 19 19 19 19 19 19 19 19 19 19 19 19 18 18 18 18 18
27 26 26 26 27 27 26 24 24 24 24 24 24 23 23 23 22 22 21 21 21 21 21 21 20 20 20 20 19 19 19 19 19 19 19 19 19 19 19 19 19 19 19 19 19 19 18 18 18
26 27 27 27 25 23 25 23 23 24 24 24 24 23 23 23 23 22 22 21 21 21 21 21 21 20 20 20 19 19 19 19 19 19 19 19 19 19 19 19 19 19 19 19 19 19 18 18 18
27 28 28 27 25 24 24 23 22 23 23 24 24 24 23 23 23 22 22 22 22 22 21 21 21 20 20 20 20 19 19 19 19 19 19 19 19 19 19 19 19 19 19 19 19 19 18 18 18
28 27 25 23 22 23 23 23 22 22 23 24 24 24 24 23 23 23 23 22 22 22 21 21 21 20 20 20 20 20 19 19 19 19 19 19 19 19 19 19 19 19 19 19 19 18 18 18 18
26 23 22 22 21 22 22 23 22 23 24 25 25 24 24 24 24 23 23 22 22 22 21 21 21 21 20 20 20 20 20 19 19 19 19 19 19 19 19 19 19 19 19 19 19 18 18 18 18
26 23 22 22 22 22 22 23 23 24 25 25 25 25 25 24 24 24 23 23 23 22 22 21 21 21 21 20 20 20 20 20 20 19 19 19 19 19 19 19 19 19 19 19 18 18 18 18 18
26 24 22 21 21 21 21 22 23 24 24 24 24 25 24 24 24 24 23 23 23 22 22 22 22 21 21 21 20 20 20 20 20 19 19 19 19 19 19 19 19 19 19 18 18 18 18 18 18
27 25 21 21 21 21 22 22 22 23 23 23 23 23 24 24 24 24 23 23 23 23 22 22 22 21 21 21 21 20 20 20 20 19 19 19 19 19 19 19 19 18 18 18 18 18 18 18 18
26 26 22 19 20 20 21 22 24 23 23 22 22 23 24 24 24 24 23 23 23 23 22 22 21 21 21 21 21 20 20 20 20 19 19 19 19 19 19 19 19 18 18 18 18 18 18 18 18
26 25 22 22 21 19 20 21 24 23 23 23 23 23 23 23 24 24 24 23 23 22 22 22 22 21 21 21 21 20 20 20 20 19 19 19 19 19 19 18 18 18 18 18 18 18 18 18 18
Wind_Speed
10 7 3 1 2 3 4 3 7 8 6 7 10 10 9 7 5 6 5 11 12 10 14 18 19 19 20 20 21 21 21 21 21 21 21 20 20 19 18 17 16 15 14 14 13 12 12 12 12
6 5 2 1 3 4 3 5 10 10 11 12 12 12 10 8 8 10 7 11 13 13 14 17 20 20 20 20 21 21 21 20 20 20 19 19 18 18 17 16 15 14 13 12 12 11 11 11 11
4 3 1 2 2 4 5 6 12 12 11 9 7 7 6 7 9 6 9 15 13 12 15 18 21 20 20 20 20 20 20 20 19 19 18 18 17 16 15 15 14 13 12 11 10 10 9 9 9
1 1 2 3 3 4 7 9 13 13 10 9 10 8 5 5 6 10 15 16 14 11 15 19 20 20 19 19 19 19 19 19 18 17 17 17 16 15 14 13 12 12 11 10 9 8 7 7 6
1 2 3 2 3 5 7 10 10 10 6 10 11 8 5 5 15 17 16 16 15 11 13 18 20 19 18 19 19 19 18 18 17 16 16 15 15 14 13 12 11 11 10 9 8 7 6 5 5
1 3 3 2 4 4 7 10 14 15 14 13 12 9 5 10 16 15 14 14 13 12 12 16 19 19 19 19 19 18 18 18 17 16 15 14 14 12 12 11 11 10 9 8 7 6 5 4 3
2 2 1 3 5 5 5 7 12 13 13 9 10 7 6 10 13 14 14 13 12 12 11 11 15 17 18 18 18 17 17 17 16 15 14 14 13 11 11 10 9 9 8 7 6 5 4 3 2
3 3 1 2 5 4 6 5 10 14 10 13 9 9 9 12 15 15 13 12 11 10 8 8 10 12 13 15 17 16 16 15 15 14 13 13 12 11 10 9 9 8 8 7 6 4 3 2 2
3 3 2 5 5 6 6 8 7 9 13 7 6 8 15 19 18 16 12 10 10 10 7 7 7 9 11 12 14 15 15 14 14 13 12 11 9 9 8 8 8 8 7 7 6 5 4 3 3
5 4 8 7 8 8 9 11 9 8 12 10 13 15 19 18 17 16 15 13 11 11 9 7 7 8 9 10 10 10 11 11 11 10 10 9 8 8 8 9 8 8 7 7 6 5 5 4 4
6 7 5 5 8 10 9 9 7 13 9 15 21 22 20 18 15 15 15 14 13 12 11 9 8 8 7 6 8 7 7 8 8 9 9 8 7 6 6 6 6 6 6 5 5 4 4 5 5
3 4 6 6 6 9 10 8 7 8 12 19 23 23 20 18 15 15 15 13 12 12 11 10 9 8 7 7 7 7 6 6 6 7 9 8 5 4 5 4 5 5 5 4 4 4 5 6 7
2 1 4 6 6 8 11 10 9 9 16 20 21 20 17 17 14 12 13 13 12 12 11 11 10 8 7 7 5 6 5 6 7 7 8 9 6 4 4 4 5 5 5 5 4 4 4 4 5
1 1 3 5 7 8 13 10 8 11 18 20 20 17 15 15 15 13 13 12 12 12 11 10 10 9 8 6 5 5 6 7 7 7 8 9 7 5 4 3 3 4 5 5 5 5 4 3 3
3 4 4 3 7 7 12 7 8 16 19 18 17 16 15 13 14 14 15 14 13 12 11 11 11 9 9 8 6 6 6 7 6 6 8 8 7 6 5 3 3 4 5 5 4 3 2 2 2
4 4 2 2 3 4 8 6 8 15 18 17 16 15 14 13 14 13 14 13 12 12 11 12 12 10 9 7 5 5 6 6 6 7 7 8 8 7 5 3 3 4 4 3 2 2 1 2 2
4 1 2 3 3 4 5 6 10 14 17 16 16 14 13 13 12 13 14 13 13 13 12 11 10 10 8 7 5 5 5 5 6 7 7 8 8 8 5 3 3 4 2 1 2 1 2 1 2
3 2 3 4 3 4 5 7 14 15 16 16 15 13 12 13 14 14 14 14 13 12 12 11 9 9 8 6 4 3 3 3 4 5 7 8 8 8 6 4 3 3 2 1 1 2 1 2 2
3 3 5 6 4 3 5 8 14 14 14 14 14 13 12 12 11 13 14 14 13 12 11 11 10 9 7 5 4 4 3 3 3 4 8 9 9 9 6 4 3 3 3 3 3 2 1 1 1
3 3 5 5 3 2 4 5 9 13 15 17 18 17 15 11 10 12 13 14 14 14 12 11 10 10 9 7 5 4 4 4 4 4 5 9 9 9 7 5 4 4 3 3 3 2 1 1 1
4 4 5 4 3 3 5 1 4 7 8 11 15 16 16 18 17 15 15 15 15 15 15 14 12 10 9 8 4 3 2 1 2 3 3 5 8 9 7 6 5 4 4 4 4 4 4 3 2
5 7 5 2 2 2 4 3 6 7 7 11 13 14 16 17 16 15 16 16 17 17 15 13 12 11 10 9 7 7 6 5 5 4 4 4 6 7 8 6 6 5 4 5 4 4 3 3 2
6 5 3 2 2 1 2 3 6 3 7 11 13 17 17 18 19 19 19 18 17 16 15 13 12 11 11 10 9 8 7 5 4 3 4 5 4 6 7 6 6 5 4 5 4 4 4 3 4
3 2 5 5 5 1 4 3 6 6 11 10 11 14 16 16 17 17 16 14 13 13 13 12 12 12 11 11 10 10 9 7 5 5 6 5 4 4 5 6 6 5 5 5 4 4 4 4 4
3 5 4 5 5 5 4 2 8 9 9 10 11 12 14 14 15 15 15 15 14 15 14 13 13 12 12 12 11 11 10 9 8 7 7 6 4 4 6 6 5 5 5 5 5 4 4 4 4
3 9 7 5 5 5 4 4 7 7 3 4 6 8 10 12 12 15 17 17 16 16 15 14 14 13 12 12 11 10 9 8 7 7 7 7 6 6 6 6 6 6 6 6 5 4 4 3 4
3 4 9 8 3 1 4 5 6 4 4 3 3 4 7 10 11 12 13 15 15 16 16 15 15 13 12 12 11 10 9 8 8 7 6 6 6 6 6 6 6 6 6 6 5 4 5 4 4
5 6 6 5 4 2 4 4 4 3 2 3 3 4 5 7 9 10 10 11 13 13 13 13 13 13 11 11 11 11 9 9 8 6 7 6 6 6 6 6 6 6 5 5 5 4 4 4 4
3 1 4 5 6 6 4 7 7 9 8 7 7 5 5 6 7 8 9 9 10 10 11 12 13 12 11 11 10 9 9 8 7 7 7 6 5 6 6 7 7 7 6 6 5 6 5 6 5
3 4 6 4 3 5 5 8 6 7 7 7 7 7 5 6 6 8 9 9 9 9 10 11 12 12 12 11 10 9 8 8 8 8 7 7 6 5 6 6 6 6 6 6 6 7 6 6 6
Wind_Direction
183 177 173 202 34 52 77 89 102 92 75 75 82 84 83 65 94 126 142 139 132 132 133 131 128 123 120 119 118 117 117 116 116 115 116 116 116 117 116 116 115 114 112 110 108 107 106 105 105
173 177 182 53 63 80 80 101 99 103 122 110 85 81 77 70 84 112 127 138 133 131 132 132 131 127 124 122 121 120 120 120 119 118 119 118 118 119 119 119 118 116 115 114 111 109 109 108 108
186 203 102 57 88 134 127 113 110 109 111 101 89 68 70 99 111 121 139 140 131 128 132 135 132 129 127 125 124 123 123 122 121 121 121 121 121 121 121 122 121 120 118 117 115 113 112 112 112
165 103 46 66 106 146 135 131 121 112 89 82 93 77 67 101 120 132 137 137 131 128 134 136 133 131 131 130 128 127 126 125 124 124 124 124 124 124 125 125 125 124 123 121 119 119 118 116 113
97 75 42 56 100 110 119 125 125 110 95 93 95 91 70 81 118 130 135 136 135 133 134 138 136 135 135 135 134 133 131 130 129 129 129 129 128 130 131 131 132 131 129 128 127 128 126 122 118
84 69 55 84 105 98 108 113 110 105 110 107 103 99 90 123 127 134 134 133 136 138 138 141 141 139 137 138 138 139 138 136 136 136 135 135 135 136 137 138 138 136 135 136 137 137 135 134 131
117 93 122 129 110 114 127 115 118 125 126 126 123 101 120 137 137 135 132 131 131 135 137 140 144 144 143 142 141 142 141 141 142 142 142 142 143 143 143 144 146 146 147 149 150 153 156 158 163
161 102 42 106 123 133 147 121 132 132 121 128 123 125 148 153 139 132 130 129 131 131 133 136 138 144 146 147 147 147 146 146 147 149 151 151 151 152 154 157 160 161 163 165 168 177 191 201 224
137 93 180 182 155 150 142 116 117 110 120 131 112 127 144 143 136 133 129 127 134 136 137 136 135 140 145 150 152 152 152 153 155 157 160 159 158 162 166 172 174 177 180 182 186 194 208 230 258
143 162 206 193 168 150 140 132 133 114 110 104 104 118 135 140 141 142 145 147 148 150 152 150 148 151 154 156 153 157 156 159 162 167 168 169 173 179 181 187 190 194 198 199 203 210 220 237 258
175 186 189 178 165 151 142 137 128 125 129 142 139 142 147 148 149 151 154 157 158 159 159 162 159 160 158 151 153 158 159 165 172 180 184 182 183 192 192 193 200 205 210 213 217 223 224 234 249
164 204 166 164 155 142 144 138 123 134 153 151 146 148 150 155 158 159 161 163 160 162 167 168 166 163 163 156 157 161 164 168 178 187 187 180 180 188 184 190 202 206 209 208 217 220 224 234 245
130 169 144 151 132 127 120 119 118 122 136 142 145 149 155 161 164 165 164 163 160 165 170 172 169 166 163 155 165 167 176 179 184 185 185 181 176 178 179 194 198 207 210 209 214 226 233 240 249
218 127 129 132 123 115 111 112 106 134 140 145 150 155 161 165 166 165 165 166 168 170 170 170 167 169 164 163 166 168 177 178 180 187 188 184 179 177 176 190 197 207 210 212 214 221 225 233 244
56 60 19 114 117 125 104 94 140 152 149 152 157 161 164 168 167 170 173 171 171 170 167 168 168 168 166 166 173 169 174 174 178 189 192 185 179 177 173 181 204 217 214 209 214 226 225 238 246
21 56 37 299 123 148 112 150 168 158 157 160 164 167 169 172 173 172 172 171 169 165 165 171 172 168 169 170 171 167 173 175 182 186 190 191 187 181 172 179 205 215 209 196 191 211 229 271 272
15 16 237 265 216 159 126 162 172 166 164 167 170 173 174 174 176 176 174 172 169 167 167 171 168 169 172 175 174 174 175 181 188 188 189 192 192 189 181 188 205 202 190 196 215 188 187 238 267
259 261 265 250 235 153 139 170 172 175 175 173 171 173 176 179 182 180 177 173 169 168 167 169 169 172 173 171 168 170 178 189 192 192 193 194 197 194 184 189 198 186 179 208 212 207 211 220 240
218 238 258 257 223 145 155 169 176 177 178 174 173 175 176 180 179 176 174 172 170 169 169 172 172 178 174 172 175 179 195 199 201 202 199 198 198 190 182 190 190 186 191 205 201 192 212 246 184
250 256 267 277 247 162 159 179 181 181 187 182 178 179 178 172 172 175 175 175 176 176 178 177 179 181 182 186 182 181 182 198 201 204 200 201 199 194 191 185 194 195 191 200 200 180 173 242 157
267 237 241 237 337 45 103 360 221 206 192 189 186 184 180 178 182 180 179 182 180 183 187 186 186 186 187 182 170 176 169 199 208 212 210 209 199 196 195 191 189 192 190 201 207 192 184 210 237
258 249 229 218 89 282 130 196 255 213 203 200 195 190 189 186 184 183 182 185 186 189 189 187 185 187 189 182 180 182 190 201 212 208 212 215 202 196 197 195 191 195 198 204 211 197 192 186 222
230 234 210 195 132 27 12 140 275 211 211 215 202 196 194 191 188 188 188 188 187 187 187 188 185 187 188 188 189 192 201 206 210 203 204 211 211 200 197 196 189 194 200 207 211 202 198 192 201
215 24 25 45 71 8 266 163 258 218 210 207 197 193 191 192 191 191 191 185 182 183 184 184 184 189 189 191 193 195 198 199 200 204 203 207 214 218 209 203 194 194 197 206 210 207 203 207 207
57 80 28 360 7 256 263 171 244 236 215 202 190 191 188 189 189 189 187 185 184 185 186 185 185 191 192 193 197 200 200 198 202 203 204 204 209 220 220 209 200 201 204 205 201 201 211 210 209
214 141 157 194 226 270 310 228 255 256 217 187 178 180 178 183 186 189 190 189 187 187 187 186 189 194 194 197 201 201 200 203 208 206 205 208 212 217 215 204 204 205 202 204 195 197 213 213 216
194 195 173 149 183 242 289 291 316 31 81 125 142 143 163 179 184 186 187 187 186 187 189 188 189 192 196 197 197 199 201 203 206 205 203 207 211 212 205 203 203 206 204 200 193 206 216 216 222
181 169 103 120 153 226 283 266 232 244 165 149 142 158 176 167 176 178 181 185 187 188 187 184 187 193 195 196 198 201 202 203 202 198 201 204 206 209 202 206 206 207 206 203 198 209 217 217 231
301 76 118 131 154 162 225 262 221 202 187 171 169 156 153 148 163 171 174 183 184 182 181 184 188 189 193 197 199 203 204 204 202 204 208 205 206 204 206 209 205 204 207 207 209 219 216 219 231
183 192 147 152 222 169 175 257 261 190 174 153 155 150 139 133 145 162 166 170 175 178 181 186 188 190 194 194 192 198 202 199 201 207 208 203 203 204 205 202 202 207 209 208 212 225 225 221 228
Height
1504 1504 1504 1506 1507 1513 1513 1505 1499 1499 1501 1502 1502 1503 1506 1510 1515 1524 1522 1521 1522 1523 1524 1526 1528 1530 1532 1534 1536 1538 1540 1541 1543 1545 1546 1548 1550 1551 1552 1554 1555 1556 1557 1557 1558 1559 1559 1560 1560
1504 1504 1506 1507 1513 1524 1517 1503 1501 1500 1502 1503 1504 1506 1508 1513 1515 1518 1520 1523 1524 1525 1526 1528 1530 1532 1534 1536 1538 1540 1542 1544 1545 1547 1549 1550 1552 1553 1554 1556 1557 1558 1559 1559 1560 1560 1561 1561 1561
1505 1505 1507 1508 1515 1519 1514 1503 1501 1502 1503 1502 1506 1509 1512 1516 1518 1519 1521 1523 1525 1527 1528 1530 1532 1534 1536 1538 1540 1542 1544 1545 1547 1549 1551 1552 1553 1555 1556 1557 1558 1559 1560 1561 1561 1562 1562 1563 1563
1506 1507 1508 1512 1514 1505 1502 1501 1500 1502 1504 1505 1507 1512 1516 1519 1518 1519 1522 1525 1527 1529 1531 1532 1534 1536 1538 1540 1542 1544 1545 1547 1549 1551 1552 1554 1555 1556 1558 1559 1559 1560 1561 1562 1562 1563 1563 1564 1565
1505 1506 1511 1516 1510 1502 1498 1498 1499 1501 1505 1508 1508 1515 1519 1521 1520 1522 1524 1526 1528 1531 1533 1535 1537 1538 1540 1541 1543 1545 1547 1549 1551 1552 1554 1555 1557 1558 1559 1560 1561 1561 1562 1563 1564 1564 1565 1565 1566
1507 1508 1519 1521 1510 1502 1500 1499 1500 1504 1508 1511 1512 1516 1522 1523 1523 1525 1527 1529 1531 1532 1535 1537 1539 1540 1541 1543 1545 1546 1548 1550 1552 1554 1556 1557 1558 1559 1560 1561 1562 1563 1563 1564 1565 1565 1566 1566 1567
1508 1511 1517 1515 1511 1506 1502 1501 1501 1505 1508 1511 1512 1517 1523 1525 1525 1527 1529 1531 1533 1535 1536 1538 1540 1542 1543 1545 1546 1548 1549 1551 1553 1555 1557 1558 1559 1560 1561 1562 1563 1564 1564 1565 1566 1566 1566 1567 1568
1506 1510 1515 1513 1510 1508 1502 1501 1503 1504 1509 1513 1513 1516 1522 1525 1527 1529 1531 1533 1535 1536 1538 1540 1542 1544 1545 1546 1548 1549 1551 1553 1555 1556 1558 1559 1560 1561 1562 1563 1564 1564 1565 1566 1566 1567 1567 1568 1569
1505 1513 1518 1512 1507 1505 1500 1502 1505 1506 1508 1513 1514 1515 1519 1524 1527 1530 1532 1534 1536 1538 1540 1541 1543 1545 1546 1548 1550 1551 1553 1554 1556 1558 1559 1560 1561 1562 1563 1564 1565 1565 1566 1566 1567 1567 1568 1569 1569
1503 1513 1507 1498 1497 1498 1500 1501 1504 1507 1510 1514 1516 1519 1522 1525 1527 1529 1532 1534 1536 1538 1540 1542 1544 1546 1547 1549 1551 1553 1554 1556 1557 1559 1560 1561 1562 1563 1564 1564 1565 1566 1566 1567 1567 1568 1569 1569 1570
1499 1502 1495 1493 1493 1495 1498 1501 1503 1506 1511 1512 1514 1519 1523 1526 1528 1530 1532 1535 1537 1539 1541 1543 1545 1547 1548 1550 1552 1554 1555 1557 1558 1560 1561 1562 1563 1564 1564 1565 1566 1566 1567 1567 1568 1569 1569 1570 1570
1495 1493 1492 1493 1493 1495 1497 1500 1504 1505 1508 1511 1513 1517 1522 1526 1528 1531 1533 1535 1538 1540 1542 1544 1546 1548 1549 1551 1553 1554 1556 1558 1559 1560 1561 1562 1563 1564 1565 1565 1566 1567 1567 1568 1569 1569 1569 1570 1570
1493 1492 1491 1492 1493 1495 1497 1500 1503 1507 1509 1513 1516 1520 1523 1526 1529 1532 1534 1536 1538 1540 1542 1544 1546 1548 1550 1552 1554 1555 1557 1558 1559 1560 1562 1563 1563 1564 1565 1565 1566 1567 1567 1568 1568 1569 1569 1570 1570
1492 1491 1491 1491 1493 1495 1498 1503 1505 1510 1512 1515 1517 1520 1524 1526 1529 1531 1534 1536 1538 1540 1542 1544 1546 1548 1550 1552 1554 1555 1557 1558 1559 1561 1562 1563 1563 1564 1565 1565 1566 1567 1567 1568 1568 1568 1569 1569 1569
1491 1494 1494 1493 1493 1497 1498 1508 1507 1509 1512 1515 1518 1521 1523 1526 1528 1530 1532 1534 1537 1540 1542 1544 1546 1549 1550 1552 1554 1555 1557 1558 1559 1561 1562 1563 1563 1564 1564 1565 1565 1566 1566 1567 1567 1568 1568 1568 1568
1494 1501 1507 1497 1494 1496 1501 1517 1509 1510 1512 1515 1518 1520 1523 1525 1527 1530 1532 1534 1537 1539 1541 1544 1546 1548 1550 1552 1554 1555 1556 1558 1559 1560 1561 1562 1563 1563 1564 1564 1565 1565 1566 1566 1566 1567 1567 1567 1567
1505 1513 1511 1502 1493 1493 1500 1511 1507 1509 1510 1513 1516 1519 1521 1524 1526 1528 1531 1533 1536 1538 1540 1543 1545 1547 1550 1551 1553 1555 1556 1557 1558 1559 1560 1561 1562 1562 1563 1563 1564 1564 1565 1565 1565 1566 1566 1566 1566
1515 1512 1509 1505 1496 1494 1500 1504 1504 1506 1508 1510 1514 1517 1519 1521 1523 1526 1529 1532 1534 1537 1539 1542 1544 1546 1548 1550 1552 1554 1555 1556 1557 1558 1559 1560 1561 1561 1562 1562 1563 1563 1563 1564 1564 1564 1565 1565 1565
1501 1506 1508 1500 1492 1495 1499 1501 1502 1504 1507 1510 1512 1514 1516 1518 1521 1524 1527 1530 1532 1535 1537 1540 1542 1544 1546 1548 1550 1551 1553 1554 1556 1557 1558 1558 1559 1560 1561 1561 1561 1562 1562 1562 1563 1563 1563 1563 1564
1497 1505 1506 1497 1489 1494 1500 1502 1500 1501 1503 1504 1507 1509 1511 1515 1519 1522 1524 1527 1529 1532 1534 1537 1540 1542 1544 1546 1548 1550 1552 1553 1554 1555 1556 1557 1557 1558 1559 1559 1560 1560 1561 1561 1561 1561 1561 1562 1562
1498 1503 1502 1501 1495 1494 1501 1511 1505 1501 1502 1504 1505 1505 1507 1510 1513 1518 1521 1524 1526 1528 1531 1534 1536 1539 1542 1544 1546 1548 1550 1551 1552 1553 1554 1555 1556 1556 1557 1558 1558 1558 1559 1559 1559 1560 1560 1560 1561
1503 1491 1492 1495 1505 1514 1507 1528 1511 1502 1502 1501 1502 1504 1505 1507 1510 1514 1517 1519 1522 1525 1528 1531 1533 1536 1539 1542 1543 1545 1546 1547 1548 1550 1551 1553 1554 1555 1555 1556 1556 1557 1557 1557 1557 1558 1558 1558 1559
1491 1485 1488 1493 1503 1513 1512 1523 1518 1504 1504 1499 1497 1499 1501 1504 1506 1510 1512 1514 1517 1521 1525 1528 1530 1533 1536 1539 1540 1542 1544 1545 1547 1548 1549 1551 1552 1552 1553 1554 1554 1554 1555 1555 1555 1556 1556 1556 1557
1482 1486 1492 1501 1512 1527 1516 1521 1521 1505 1497 1493 1493 1496 1498 1501 1504 1506 1509 1512 1515 1518 1522 1525 1527 1530 1533 1535 1538 1539 1541 1543 1544 1545 1546 1548 1549 1550 1550 1551 1552 1552 1552 1553 1553 1553 1553 1554 1554
1484 1505 1527 1530 1539 1533 1514 1517 1514 1492 1486 1486 1488 1491 1494 1497 1500 1503 1506 1509 1511 1515 1518 1521 1524 1526 1529 1532 1534 1536 1538 1540 1541 1543 1544 1545 1546 1547 1547 1548 1549 1549 1550 1550 1550 1550 1551 1551 1551
1488 1502 1528 1540 1543 1532 1515 1517 1502 1483 1482 1483 1485 1487 1490 1494 1496 1498 1501 1503 1507 1510 1514 1517 1520 1522 1525 1528 1530 1533 1535 1537 1538 1540 1541 1542 1543 1544 1545 1546 1546 1547 1547 1548 1548 1548 1548 1548 1548
1487 1496 1499 1519 1526 1532 1525 1510 1494 1483 1483 1483 1485 1487 1489 1491 1494 1496 1498 1501 1504 1507 1509 1513 1516 1519 1522 1524 1527 1529 1531 1533 1535 1537 1539 1540 1541 1542 1542 1543 1543 1544 1545 1545 1545 1545 1545 1545 1546
1476 1483 1502 1517 1533 1539 1528 1517 1509 1493 1488 1485 1485 1486 1487 1489 1491 1494 1496 1499 1502 1504 1507 1511 1514 1516 1519 1521 1524 1526 1528 1530 1532 1534 1535 1536 1538 1539 1539 1540 1540 1541 1542 1542 1542 1542 1542 1542 1543
1481 1485 1496 1512 1518 1533 1537 1521 1487 1486 1483 1483 1483 1484 1486 1487 1490 1492 1494 1497 1500 1503 1506 1508 1511 1514 1516 1518 1520 1522 1524 1526 1528 1530 1531 1533 1534 1535 1536 1536 1537 1537 1538 1539 1539 1539 1539 1539 1539
1476 1482 1493 1511 1515 1520 1526 1514 1477 1477 1477 1479 1481 1483 1485 1486 1488 1490 1492 1495 1497 1500 1502 1505 1507 1510 1512 1515 1517 1519 1521 1523 1524 1526 1527 1529 1530 1531 1532 1532 1533 1534 1534 1535 1535 1536 1536 1536 1536